TimePDT,TemperatureF,Dew PointF,Humidity,Sea Level PressureIn,VisibilityMPH,Wind Direction,Wind SpeedMPH,Gust SpeedMPH,PrecipitationIn,Events,Conditions,WindDirDegrees,DateUTC
12:50 AM,79.0,26.1,14,29.63,10.0,SW,17.3,29.9,N/A,,Clear,230,2013-04-30 07:50:00
1:50 AM,77.0,30.0,18,29.62,10.0,WSW,18.4,26.5,N/A,,Clear,240,2013-04-30 08:50:00
2:50 AM,75.9,32.0,20,29.61,10.0,SW,19.6,-,N/A,,Clear,230,2013-04-30 09:50:00
3:50 AM,75.9,34.0,22,29.60,10.0,SW,24.2,32.2,N/A,,Clear,230,2013-04-30 10:50:00
4:50 AM,75.0,36.0,24,29.58,10.0,SW,27.6,34.5,N/A,,Clear,220,2013-04-30 11:50:00
5:50 AM,75.0,36.0,24,29.59,10.0,SW,23.0,29.9,N/A,,Clear,230,2013-04-30 12:50:00
6:50 AM,73.0,36.0,26,29.62,10.0,WNW,15.0,-,N/A,,Clear,290,2013-04-30 13:50:00
7:50 AM,80.1,34.0,19,29.61,10.0,WSW,28.8,-,N/A,,Clear,240,2013-04-30 14:50:00
8:50 AM,82.9,35.1,18,29.62,10.0,WSW,24.2,35.7,N/A,,Clear,250,2013-04-30 15:50:00
9:50 AM,84.9,35.1,17,29.61,10.0,WSW,26.5,35.7,N/A,,Clear,240,2013-04-30 16:50:00
11:50 AM,91.0,33.1,13,29.60,10.0,West,20.7,32.2,N/A,,Clear,280,2013-04-30 18:50:00
12:50 PM,93.0,34.0,12,29.59,10.0,West,23.0,29.9,N/A,,Clear,280,2013-04-30 19:50:00
1:50 PM,95.0,34.0,12,29.59,10.0,WSW,18.4,33.4,N/A,,Clear,250,2013-04-30 20:50:00
2:50 PM,95.0,32.0,11,29.57,10.0,WSW,15.0,33.4,N/A,,Clear,250,2013-04-30 21:50:00
3:50 PM,95.0,32.0,11,29.54,10.0,WSW,23.0,33.4,N/A,,Clear,250,2013-04-30 22:50:00
4:50 PM,93.9,33.1,12,29.53,10.0,WSW,20.7,27.6,N/A,,Clear,240,2013-04-30 23:50:00
5:50 PM,91.0,36.0,14,29.55,10.0,WSW,20.7,33.4,N/A,,Clear,240,2013-05-01 00:50:00
6:50 PM,84.9,39.9,20,29.57,10.0,SW,23.0,31.1,N/A,,Clear,230,2013-05-01 01:50:00
7:50 PM,80.1,42.1,26,29.60,10.0,SW,24.2,28.8,N/A,,Clear,230,2013-05-01 02:50:00
8:50 PM,77.0,42.1,29,29.64,10.0,WSW,23.0,-,N/A,,Clear,240,2013-05-01 03:50:00
9:50 PM,75.0,42.1,31,29.65,10.0,WSW,25.3,31.1,N/A,,Clear,240,2013-05-01 04:50:00
10:50 PM,73.9,41.0,30,29.65,10.0,SW,21.9,33.4,N/A,,Clear,230,2013-05-01 05:50:00
11:50 PM,73.0,39.9,30,29.69,10.0,SW,19.6,27.6,N/A,,Clear,230,2013-05-01 06:50:00